Regional Weather Roundup
Issued by NWS Cleveland, OH

Home | Current Version | Previous Version | Text Only | Print | Product List | Glossary Off
Versions: 1 2 3 4 5 6 7 8 9 10 11 12 13 14 15 16 17 18 19 20 21 22 23 24 25 26 27 28 29 30 31 32 33 34 35 36 37 38 39 40 41 42 43 44 45 46 47 48 49 50

000
ASUS41 KCLE 251602
RWRCLE
OHIO REGIONAL WEATHER ROUNDUP
NATIONAL WEATHER SERVICE CLEVELAND, OH
1200 PM EDT SAT OCT 25 2014

NOTE: "FAIR" INDICATES FEW OR NO CLOUDS BELOW 12,000 FEET WITH NO
SIGNIFICANT WEATHER AND/OR OBSTRUCTIONS TO VISIBILITY.

OHZ001>008-015>018-024>027-034-035-043-044-251700-
   NORTHWEST OHIO

CITY           SKY/WX    TMP DP  RH WIND       PRES   REMARKS
DEFIANCE       SUNNY     64  54  69 W13G18    29.87F
FINDLAY        SUNNY     66  54  65 W18       29.86F HAZE
TOLEDO EXPRESS CLOUDY    59  53  80 W15G24    29.85S
TOLEDO EXEC    MOSUNNY   63  53  70 W15       29.84F
LIMA           SUNNY     65  54  67 W18       29.89F
$$

OHZ009>014-019>023-028>033-038-089-251700-
   NORTHEAST OHIO

CITY           SKY/WX    TMP DP  RH WIND       PRES   REMARKS
CLE-HOPKINS    PTSUNNY   63  52  67 SW17      29.84F
CLE-LAKEFRONT  PTSUNNY   64  52  64 SW15      29.80F
CUY CO. ARPT   PTSUNNY   64  54  68 SW14G24   29.82F
LORAIN-ELYRIA  PTSUNNY   63  51  65 W18       29.83F
ASHTABULA      CLOUDY    62  50  64 SW13      29.80F
AKRON-CANTON   MOSUNNY   63  50  62 SW17G23   29.86F
WOOSTER        SUNNY     65  50  58 SW16G23   29.86F
MANSFIELD      MOSUNNY   61  51  70 SW15      29.87F
YOUNGSTOWN     MOSUNNY   61  50  67 SW12      29.84F
$$

OHZ042-051>053-060>062-070>072-077>081-251700-
  SOUTHWEST OHIO

CITY           SKY/WX    TMP DP  RH WIND       PRES   REMARKS
CINC-COVINGTON CLOUDY    63  53  70 W8        29.99F
CINC-LUNKEN    CLOUDY    61  54  77 S6        30.00F
HAMILTON       CLOUDY    63  53  70 VRB5      29.98F
DAYTON         PTSUNNY   65  54  67 SW14      29.95F
WRIGHT-PAT AFB SUNNY     60  52  74 SW13      29.94F
DAYTON GENERAL CLOUDY    59  52  77 SW9       29.96F HAZE
WILMINGTON     LGT RAIN  61  51  70 W14       29.96F
$$

OHZ036-037-039>041-045>050-054>059-063>069-073>076-082>088-251700-
  CENTRAL AND SOUTHEAST OHIO

CITY           SKY/WX    TMP DP  RH WIND       PRES   REMARKS
COLUMBUS       MOSUNNY   58  49  72 SW8       29.93F
OSU AIRPORT    MOSUNNY   63  51  65 SW10      29.92F
BOLTON FIELD   MOSUNNY   63  54  72 SW14G22   29.94F
RICKENBACK AFB NOT AVBL
NEWARK         PTSUNNY   63  51  65 SW15G28   29.92F
MARION         SUNNY     64  52  64 W14       29.89F HAZE
LANCASTER      PTSUNNY   63  52  67 SW13      29.95F
ZANESVILLE     CLOUDY    57  48  72 SW8       29.94F
NEW PHILLY     MOSUNNY   60  49  66 SW8G17    29.91F
$$



USA.gov is the U.S. government's official web portal to all federal, state and local government web resources and services.